STARLINK-5670, 55341

Orbit data source: Space-Track

STARLINK-5670, 55341 is a payload satellite owned by SpaceX/Seattle (US) in LEO that was launched on Thu, 26 Jan 2023 UTC via an FALCON 9 launch vehicle from the Air Force Eastern Test Range (AFETR). Payload-class satellites include a variety of spacecraft equipped with specific instruments for various scientific and technological missions. These include communications satellites like Starlink; space stations such as the ISS; scientific satellites like the Hubble; Earth observation satellites from companies like Planet Labs, Umbra, and HawkEye 360; GPS; miniature CubeSats for education and research; and military/defense satellites.

Loading next visibility...
Identifier
55341, 2023-013L
Orbit
LEO
Country
Flag of USUS
Related business
Manufacturer
SpaceX/Seattle
Mission
Operational Commercial Communications
Bus & Motor
STARLINK, Unknown motor
Mass
305 kg wet, ~290 kg dry
Launch date (UTC)
2023-01-26 (3 years ago)
Launch vehicle
FALCON 9
Launch site
Air Force Eastern Test Range (AFETR)
Object type
Payload
Rocket body
Debris
Shape & HBR
Box + 1 Pan, 10.1 m
Radar Cross Section
13.562 m², Large (>1 m²)

Expand to show TLE details & history
Last TLE update: 1 day ago

TLE from 1 day ago
0 STARLINK-5670
1 55341U 23013L   25348.51017285 -.00004697  00000-0 -33264-3 0  9997
2 55341  42.9982  43.3925 0000643 144.3194 215.7692 15.02563773158891
Epoch: 2025-12-14T12:14Z
TLE epoch observation values (Epoch: 2025-12-14T12:14:38.934Z)
Latitude
0.00004°
Longitude
136.30826°
Altitude
559.134 km
Speed
7.583 km/s
True Right ascension
02h 53m 34s
True Declination
0° 00' 00"
Sunlit
Object was in full shadow at epoch
Visualization orbit readout
Latitude
Unknown
Longitude
Unknown
Altitude
Unknown
Speed
Unknown
Apparent Right ascension
Unknown
Apparent Declination
Unknown
Sunlit
N/A
Visualization observer readout
Local Sidereal Time
13:19:03
Azimuth
Unknown
Elevation
Unknown
Doppler factor
Unknown
Orbital elements
Apogee altitude
561.364 km
Perigee altitude
560.472 km
Semi-major axis
6,939.055 km
Eccentricity
0.00006
Inclination
42.9982°
RAAN
43.3925°
Arg. of periapsis
144.3194°
True anomaly
215.76489°
Mean anomaly
215.7692°
Eccentric anomaly
215.76705°
Mean motion
3.75485 °/min
Orbital period
95.88 mins
BSTAR
-0.00033264
Loading maneuver chart data...
Computing Atmospheric mass density...
Loading historical data...
Loading historical data...
Loading historical data...
Loading historical data...
Loading historical data...
Loading historical data...
Loading historical data...

Documentation

Showing up to 5 results
|